Location: Staunton
(38.1490°N, 79.0720°W)
Time: 14:24:16
(UTC-04:00)

ISS - Pass Details

Date: 26 May 2017
Orbit: 402 x 408 km, 51.6° (Epoch: 29 May)

Event Time Altitude Azimuth Distance (km) Brightness Sun altitude
Rises 03:37:50 0° 314° (NW) 2,326 0.1 -21.7°
Reaches altitude 10° 03:39:59 10° 322° (NW) 1,462 -0.8 -21.4°
Maximum altitude 03:43:07 41° 34° (NE) 598 -2.5 -21.0°
Drops below altitude 10° 03:46:14 10° 107° (ESE) 1,452 -0.8 -20.7°
Sets 03:48:22 0° 115° (ESE) 2,307 0.2 -20.4°
